NOTE: This page is experimental. Bug reports to carter.barry@gmail.com. Query language is SQLite3.

Prepend rss. to the URL for an RSS feed, csv. to the URL for CSV output.

QUERY: SELECT station_id AS "Code", observation_time AS "Time (GMT)", ROUND(altim_in_hg,2) AS "Pressure (inches)", ROUND(temp_c*1.8+32, 1) AS "Temp. (F)", ROUND(wind_speed_kt*1.15077945) AS "Wind (mph)", (CASE WHEN wind_gust_kt THEN ROUND(wind_gust_kt*1.15077945) ELSE "NA" END) AS "Gust (mph)", DATETIME(observation_time,'-7 hours') AS "Time (MST)" FROM metar WHERE station_id='KABQ' ORDER BY observation_time DESC

To edit query (or if query above is munged), see textbox at bottom of page

Empty result may indicate error: I'm not sure why my error checking code isn't working.

Source code

Code Time (GMT) Pressure (inches) Temp. (F) Wind (mph) Gust (mph) Time (MST)
KABQ 2017-05-27T11:32:00Z 30.08 51.1 5.0 NA 2017-05-27 04:32:00
KABQ 2017-05-27T10:52:00Z 30.07 63.0 9.0 NA 2017-05-27 03:52:00
KABQ 2017-05-27T09:52:00Z 30.06 55.9 3.0 NA 2017-05-27 02:52:00
KABQ 2017-05-27T08:52:00Z 30.05 57.0 8.0 NA 2017-05-27 01:52:00
KABQ 2017-05-27T07:52:00Z 30.05 60.1 6.0 NA 2017-05-27 00:52:00
KABQ 2017-05-27T06:52:00Z 30.04 61.0 5.0 NA 2017-05-26 23:52:00
KABQ 2017-05-27T05:52:00Z 30.03 68.0 0.0 NA 2017-05-26 22:52:00
KABQ 2017-05-27T04:52:00Z 30.02 71.1 0.0 NA 2017-05-26 21:52:00
KABQ 2017-05-27T03:52:00Z 29.99 73.9 12.0 NA 2017-05-26 20:52:00
KABQ 2017-05-27T02:52:00Z 29.95 75.9 17.0 NA 2017-05-26 19:52:00
KABQ 2017-05-27T01:52:00Z 29.91 81.0 18.0 NA 2017-05-26 18:52:00
KABQ 2017-05-27T00:52:00Z 29.89 84.0 23.0 29.0 2017-05-26 17:52:00
KABQ 2017-05-26T23:52:00Z 29.89 86.0 23.0 30.0 2017-05-26 16:52:00
KABQ 2017-05-26T22:52:00Z 29.9 82.0 7.0 NA 2017-05-26 15:52:00
KABQ 2017-05-26T22:21:00Z 29.91 84.0 16.0 25.0 2017-05-26 15:21:00
KABQ 2017-05-26T21:52:00Z 29.91 82.0 3.0 NA 2017-05-26 14:52:00
KABQ 2017-05-26T20:52:00Z 29.94 81.0 5.0 NA 2017-05-26 13:52:00
KABQ 2017-05-26T19:52:00Z 29.98 81.0 13.0 21.0 2017-05-26 12:52:00
KABQ 2017-05-26T18:52:00Z 30.0 78.1 8.0 NA 2017-05-26 11:52:00
KABQ 2017-05-26T17:52:00Z 30.03 75.9 6.0 NA 2017-05-26 10:52:00
KABQ 2017-05-26T16:52:00Z 30.04 73.0 6.0 NA 2017-05-26 09:52:00
KABQ 2017-05-26T15:52:00Z 30.05 70.0 5.0 NA 2017-05-26 08:52:00
KABQ 2017-05-26T14:52:00Z 30.06 69.1 6.0 NA 2017-05-26 07:52:00
KABQ 2017-05-26T13:52:00Z 30.06 63.0 6.0 NA 2017-05-26 06:52:00
KABQ 2017-05-26T12:52:00Z 30.03 55.9 10.0 NA 2017-05-26 05:52:00
KABQ 2017-05-26T11:52:00Z 30.01 53.1 6.0 NA 2017-05-26 04:52:00

Enter query below (must start w/ SELECT):

Schema Raw SQLite3 db RSS feed for this query